Date,TemperatureHighF,TemperatureAvgF,TemperatureLowF,DewpointHighF,DewpointAvgF,DewpointLowF,HumidityHigh,HumidityAvg,HumidityLow,PressureMaxIn,PressureMinIn,WindSpeedMaxMPH,WindSpeedAvgMPH,GustSpeedMaxMPH,PrecipitationSumIn
2013-7-1,81.5,70.3,58.9,57.9,52.0,46.4,83,56,31,30.04,29.94,17,9,23,0.00
2013-7-2,84.0,72.7,60.5,56.6,50.1,39.4,69,47,22,30.03,29.92,15,8,27,0.00
2013-7-3,84.7,71.8,63.1,55.4,51.3,47.6,67,50,29,30.00,29.84,15,6,19,0.00
2013-7-4,89.7,75.0,59.4,59.1,54.2,48.1,80,51,27,29.90,29.76,17,8,25,0.00
2013-7-5,90.7,79.6,66.6,62.3,58.7,53.8,79,51,31,29.82,29.69,27,14,37,0.00
2013-7-6,85.1,77.0,71.0,69.1,64.8,61.3,81,66,56,29.80,29.69,22,12,32,0.03
2013-7-7,97.3,85.5,74.7,65.6,63.2,57.9,69,49,29,29.83,29.73,20,15,27,0.00
2013-7-8,98.9,86.4,75.3,68.3,65.2,59.1,70,52,29,29.89,29.77,18,12,25,0.00
2013-7-9,104.2,90.0,76.5,70.3,66.3,59.8,77,50,24,29.85,29.68,16,12,24,0.00
2013-7-10,98.8,87.2,72.1,72.0,66.8,63.2,82,53,32,29.84,29.75,15,7,20,0.04
2013-7-11,92.3,82.3,74.0,73.7,68.9,64.2,84,65,43,29.90,29.75,24,10,29,0.40
2013-7-12,97.5,87.4,72.5,71.5,67.8,63.8,77,54,37,29.83,29.73,15,10,23,0.00
2013-7-13,98.3,86.8,75.3,71.9,69.2,66.7,82,58,38,29.83,29.71,17,11,24,0.00
2013-7-14,84.3,73.1,66.6,71.5,67.9,62.2,95,85,57,29.95,29.75,23,6,31,0.78
2013-7-15,78.2,70.0,64.7,71.0,65.3,61.9,93,85,68,30.17,29.95,21,7,28,0.32
2013-7-16,88.3,76.1,64.5,70.4,66.4,62.7,94,74,49,30.25,30.15,17,6,24,0.00
2013-7-17,89.7,78.3,67.9,72.6,69.0,66.1,96,75,48,30.28,30.15,11,5,18,0.02
2013-7-18,90.8,80.1,68.3,72.3,68.1,63.9,96,70,42,30.18,29.97,17,7,23,0.00
2013-7-19,94.5,83.1,71.1,69.6,66.7,63.6,86,60,37,30.00,29.82,13,8,22,0.00
2013-7-20,95.4,81.0,71.6,71.0,67.3,62.2,88,66,34,29.88,29.75,18,10,27,0.00
2013-7-21,87.4,77.1,69.3,75.0,71.0,67.5,96,82,63,29.86,29.75,14,9,19,0.54
2013-7-22,87.1,77.3,72.7,75.9,68.9,-99.9,91,78,53,29.87,29.73,16,8,31,0.50
2013-7-23,91.5,80.8,68.3,75.8,69.7,59.6,93,70,52,29.92,29.70,26,10,37,0.66
2013-7-24,87.7,76.6,68.3,73.9,67.4,-99.9,94,76,46,30.01,29.86,13,6,18,0.12
2013-7-25,86.2,77.0,69.1,73.0,68.9,63.1,91,77,61,30.03,29.95,15,7,22,0.00
2013-7-26,84.3,74.9,66.5,70.7,66.2,-99.9,95,77,49,30.05,29.93,19,9,26,1.11
2013-7-27,79.0,70.4,61.8,64.0,59.7,55.2,86,70,57,30.10,29.94,14,9,19,0.05
2013-7-28,66.6,62.6,60.7,64.0,58.4,-99.9,96,92,87,30.06,29.95,16,9,23,1.32
2013-7-29,84.3,74.0,63.8,75.3,68.9,60.7,93,84,70,30.00,29.77,23,11,30,0.04
2013-7-30,81.0,74.5,70.7,73.9,71.0,69.2,97,89,77,30.06,29.90,10,5,15,0.00
2013-7-31,85.7,75.6,67.4,73.2,69.5,66.2,97,83,57,30.13,30.01,9,4,14,0.01